QPF
0.00 0.00 0.00 0.00 0.00 0.00 0.00 0.00 0.00 0.00 0.00 0.00 0.00 0.00 0.00 0.00 0.00 0.00 0.00 0.00 0.00 0.00 0.00 0.00 0.00 0.00 0.00 0.00 0.00 0.00 0.00 0.00 0.00 0.00 0.00 0.00 0.00 0.00 0.00 0.00 0.00 0.00 0.00 0.00 0.00
0.00 0.00 0.00 0.00 0.00 0.00 0.00 0.00 0.00 0.00 0.00 0.00 0.00 0.00 0.00 0.00 0.00 0.00 0.00 0.00 0.00 0.00 0.00 0.00 0.00 0.00 0.00 0.00 0.00 0.00 0.00 0.00 0.00 0.00 0.00 0.00 0.00 0.00 0.00 0.00 0.00 0.00 0.00 0.00 0.00
0.00 0.00 0.00 0.00 0.00 0.00 0.00 0.00 0.00 0.00 0.00 0.00 0.00 0.00 0.00 0.00 0.00 0.00 0.00 0.00 0.00 0.00 0.00 0.00 0.00 0.00 0.00 0.00 0.00 0.00 0.00 0.00 0.00 0.00 0.00 0.00 0.00 0.00 0.00 0.00 0.00 0.00 0.00 0.00 0.00
0.00 0.00 0.00 0.00 0.00 0.00 0.00 0.00 0.00 0.00 0.00 0.00 0.00 0.00 0.00 0.00 0.00 0.00 0.00 0.00 0.00 0.00 0.00 0.00 0.00 0.00 0.00 0.00 0.00 0.00 0.00 0.00 0.00 0.00 0.00 0.00 0.00 0.00 0.00 0.00 0.00 0.00 0.00 0.00 0.00
0.00 0.00 0.00 0.00 0.00 0.00 0.00 0.00 0.00 0.00 0.00 0.00 0.00 0.00 0.00 0.00 0.00 0.00 0.00 0.00 0.00 0.00 0.00 0.00 0.00 0.00 0.00 0.00 0.00 0.00 0.00 0.00 0.00 0.00 0.00 0.00 0.00 0.00 0.00 0.00 0.00 0.00 0.00 0.00 0.00
0.00 0.00 0.00 0.00 0.00 0.00 0.00 0.00 0.00 0.00 0.00 0.00 0.00 0.00 0.00 0.00 0.00 0.00 0.00 0.00 0.00 0.00 0.00 0.00 0.00 0.00 0.00 0.00 0.00 0.00 0.00 0.00 0.00 0.00 0.00 0.00 0.00 0.00 0.00 0.00 0.00 0.00 0.00 0.00 0.00
0.00 0.00 0.00 0.00 0.00 0.00 0.00 0.00 0.00 0.00 0.00 0.00 0.00 0.00 0.00 0.00 0.00 0.00 0.00 0.00 0.00 0.00 0.00 0.00 0.00 0.00 0.00 0.00 0.00 0.00 0.00 0.00 0.00 0.00 0.00 0.00 0.00 0.00 0.00 0.00 0.00 0.00 0.00 0.00 0.00
0.00 0.00 0.00 0.00 0.00 0.00 0.00 0.00 0.00 0.00 0.00 0.00 0.00 0.00 0.00 0.00 0.00 0.00 0.00 0.00 0.00 0.00 0.00 0.00 0.00 0.00 0.00 0.00 0.00 0.00 0.00 0.00 0.00 0.00 0.00 0.00 0.00 0.00 0.00 0.00 0.00 0.00 0.00 0.00 0.00
0.00 0.00 0.00 0.00 0.00 0.00 0.00 0.00 0.00 0.00 0.00 0.00 0.00 0.00 0.00 0.00 0.00 0.00 0.00 0.00 0.00 0.00 0.00 0.00 0.00 0.00 0.00 0.00 0.00 0.00 0.00 0.00 0.00 0.00 0.00 0.00 0.00 0.00 0.00 0.00 0.00 0.00 0.00 0.00 0.00
0.00 0.00 0.00 0.00 0.00 0.00 0.00 0.00 0.00 0.00 0.00 0.00 0.00 0.00 0.00 0.00 0.00 0.00 0.00 0.00 0.00 0.00 0.00 0.00 0.00 0.00 0.00 0.00 0.00 0.00 0.00 0.00 0.00 0.00 0.00 0.00 0.00 0.00 0.00 0.00 0.00 0.00 0.00 0.00 0.00
0.00 0.00 0.00 0.00 0.00 0.00 0.00 0.00 0.00 0.00 0.00 0.00 0.00 0.00 0.00 0.00 0.00 0.00 0.00 0.00 0.00 0.00 0.00 0.00 0.00 0.00 0.00 0.00 0.00 0.00 0.00 0.00 0.00 0.00 0.00 0.00 0.00 0.00 0.00 0.00 0.00 0.00 0.00 0.00 0.00
0.00 0.00 0.00 0.00 0.00 0.00 0.00 0.00 0.00 0.00 0.00 0.00 0.00 0.00 0.00 0.00 0.00 0.00 0.00 0.00 0.00 0.00 0.00 0.00 0.00 0.00 0.00 0.00 0.00 0.00 0.00 0.00 0.00 0.00 0.00 0.00 0.00 0.00 0.00 0.00 0.00 0.00 0.00 0.00 0.00
0.00 0.00 0.00 0.00 0.00 0.00 0.00 0.00 0.00 0.00 0.00 0.00 0.00 0.00 0.00 0.00 0.00 0.00 0.00 0.00 0.00 0.00 0.00 0.00 0.00 0.00 0.00 0.00 0.00 0.00 0.00 0.00 0.00 0.00 0.00 0.00 0.00 0.00 0.00 0.00 0.00 0.00 0.00 0.00 0.00
0.00 0.00 0.00 0.00 0.00 0.00 0.00 0.00 0.00 0.00 0.00 0.00 0.00 0.00 0.00 0.00 0.00 0.00 0.00 0.00 0.00 0.00 0.00 0.00 0.00 0.00 0.00 0.00 0.00 0.00 0.00 0.00 0.00 0.00 0.00 0.00 0.00 0.00 0.00 0.00 0.00 0.00 0.00 0.00 0.00
0.00 0.00 0.00 0.00 0.00 0.00 0.00 0.00 0.00 0.00 0.00 0.00 0.00 0.00 0.00 0.00 0.00 0.00 0.00 0.00 0.00 0.00 0.00 0.00 0.00 0.00 0.00 0.00 0.00 0.00 0.00 0.00 0.00 0.00 0.00 0.00 0.00 0.00 0.00 0.00 0.00 0.00 0.00 0.00 0.00
0.00 0.00 0.00 0.00 0.00 0.00 0.00 0.00 0.00 0.00 0.00 0.00 0.00 0.00 0.00 0.00 0.00 0.00 0.00 0.00 0.00 0.00 0.00 0.00 0.00 0.00 0.00 0.00 0.00 0.00 0.00 0.00 0.00 0.00 0.00 0.00 0.00 0.00 0.00 0.00 0.00 0.00 0.00 0.00 0.00
0.00 0.00 0.00 0.00 0.00 0.00 0.00 0.00 0.00 0.00 0.00 0.00 0.00 0.00 0.00 0.00 0.00 0.00 0.00 0.00 0.00 0.00 0.00 0.00 0.00 0.00 0.00 0.00 0.00 0.00 0.00 0.00 0.00 0.00 0.00 0.00 0.00 0.00 0.00 0.00 0.00 0.00 0.00 0.00 0.00
0.00 0.00 0.00 0.00 0.00 0.00 0.00 0.00 0.00 0.00 0.00 0.00 0.00 0.00 0.00 0.00 0.00 0.00 0.00 0.00 0.00 0.00 0.00 0.00 0.00 0.00 0.00 0.00 0.00 0.00 0.00 0.00 0.00 0.00 0.00 0.00 0.00 0.00 0.00 0.00 0.00 0.00 0.00 0.00 0.00
0.01 0.00 0.00 0.00 0.00 0.00 0.00 0.00 0.00 0.00 0.00 0.00 0.00 0.00 0.00 0.00 0.00 0.00 0.00 0.00 0.00 0.00 0.00 0.00 0.00 0.00 0.00 0.00 0.00 0.00 0.00 0.00 0.00 0.00 0.00 0.00 0.00 0.00 0.00 0.00 0.00 0.00 0.00 0.00 0.00
0.00 0.00 0.00 0.00 0.00 0.00 0.01 0.00 0.00 0.00 0.00 0.00 0.00 0.00 0.00 0.00 0.00 0.00 0.00 0.00 0.00 0.00 0.00 0.00 0.00 0.00 0.00 0.00 0.00 0.00 0.00 0.00 0.00 0.00 0.00 0.00 0.00 0.00 0.00 0.00 0.00 0.00 0.01 0.01 0.01
0.00 0.00 0.00 0.00 0.01 0.01 0.00 0.00 0.00 0.00 0.00 0.00 0.00 0.00 0.00 0.00 0.00 0.00 0.00 0.00 0.00 0.00 0.00 0.00 0.00 0.00 0.00 0.00 0.00 0.00 0.00 0.00 0.00 0.00 0.00 0.00 0.00 0.00 0.00 0.00 0.00 0.00 0.01 0.01 0.00
0.01 0.00 0.00 0.00 0.00 0.00 0.00 0.00 0.00 0.00 0.00 0.00 0.00 0.00 0.00 0.00 0.00 0.00 0.00 0.00 0.00 0.00 0.00 0.00 0.00 0.00 0.00 0.00 0.00 0.00 0.00 0.00 0.00 0.00 0.00 0.00 0.00 0.00 0.00 0.00 0.00 0.00 0.00 0.00 0.00
0.02 0.00 0.00 0.00 0.00 0.00 0.00 0.00 0.00 0.00 0.00 0.00 0.00 0.00 0.00 0.00 0.00 0.00 0.00 0.00 0.00 0.00 0.00 0.00 0.00 0.00 0.00 0.00 0.00 0.00 0.00 0.00 0.00 0.00 0.00 0.01 0.00 0.00 0.00 0.00 0.00 0.00 0.00 0.00 0.00
0.01 0.01 0.01 0.00 0.00 0.00 0.00 0.00 0.00 0.00 0.00 0.00 0.00 0.00 0.00 0.00 0.00 0.00 0.00 0.00 0.00 0.00 0.00 0.00 0.00 0.00 0.00 0.00 0.00 0.00 0.00 0.00 0.00 0.00 0.00 0.00 0.00 0.00 0.00 0.00 0.00 0.00 0.00 0.00 0.00
0.02 0.00 0.00 0.01 0.00 0.00 0.00 0.00 0.00 0.00 0.00 0.00 0.00 0.00 0.00 0.00 0.00 0.00 0.00 0.00 0.00 0.00 0.00 0.00 0.00 0.00 0.00 0.00 0.00 0.00 0.00 0.00 0.00 0.00 0.00 0.00 0.00 0.00 0.00 0.00 0.00 0.00 0.00 0.00 0.00
0.03 0.00 0.00 0.00 0.00 0.00 0.00 0.00 0.00 0.00 0.00 0.00 0.00 0.00 0.00 0.00 0.00 0.00 0.00 0.00 0.00 0.00 0.00 0.00 0.00 0.00 0.00 0.00 0.00 0.00 0.00 0.00 0.00 0.00 0.00 0.00 0.00 0.00 0.00 0.00 0.00 0.00 0.00 0.00 0.00
0.03 0.00 0.00 0.00 0.00 0.00 0.00 0.00 0.00 0.00 0.00 0.00 0.00 0.00 0.00 0.00 0.00 0.00 0.00 0.00 0.00 0.00 0.00 0.00 0.00 0.00 0.00 0.00 0.00 0.00 0.00 0.00 0.00 0.00 0.00 0.00 0.00 0.00 0.00 0.00 0.00 0.00 0.00 0.00 0.01
MSLP
1021.04 1020.98 1020.95 1020.91 1020.71 1020.81 1020.69 1020.55 1020.13 1019.89 1019.60 1019.11 1018.63 1018.21 1017.74 1017.23 1016.05 1014.87 1014.49 1013.80 1013.42 1013.12 1013.01 1012.44 1011.68 1011.40 1011.14 1011.56 1011.34 1011.23 1012.38 1012.72 1011.98 1010.78 1009.96 1009.12 1008.69 1008.64 1008.59 1009.00 1009.79 1010.32 1010.89 1012.04 1012.91
1020.78 1020.79 1020.76 1020.76 1020.96 1020.76 1020.67 1020.45 1020.42 1020.05 1019.67 1019.16 1018.70 1018.17 1017.69 1017.36 1016.64 1014.94 1013.42 1013.44 1013.40 1013.27 1012.97 1012.93 1012.52 1011.97 1011.67 1011.49 1011.17 1011.53 1012.14 1011.92 1011.17 1010.44 1010.10 1009.53 1009.14 1009.03 1009.25 1009.99 1011.08 1011.35 1011.92 1012.33 1012.85
1020.54 1020.61 1020.67 1020.64 1020.75 1020.87 1020.69 1020.46 1020.30 1020.28 1019.58 1019.27 1018.79 1018.17 1017.51 1017.28 1016.51 1014.05 1013.16 1013.35 1013.23 1013.34 1013.23 1013.16 1012.68 1012.64 1011.96 1011.57 1011.23 1011.36 1011.42 1011.01 1010.45 1010.17 1009.95 1009.84 1009.82 1009.67 1009.81 1010.84 1010.93 1011.60 1012.27 1012.63 1013.15
1020.32 1020.47 1020.60 1020.60 1020.55 1020.76 1020.61 1020.30 1020.31 1020.13 1019.68 1019.37 1018.90 1018.27 1017.42 1017.14 1015.79 1013.42 1012.90 1013.16 1013.16 1013.20 1013.15 1012.91 1012.92 1012.75 1012.20 1011.81 1011.57 1011.38 1010.61 1010.42 1010.06 1009.84 1009.85 1009.92 1009.93 1010.17 1010.07 1010.45 1010.94 1011.67 1012.22 1012.99 1013.89
1020.23 1020.38 1020.57 1020.64 1020.63 1020.71 1020.68 1020.17 1020.32 1019.98 1019.68 1019.42 1019.01 1018.33 1017.54 1016.73 1014.79 1012.80 1012.92 1013.01 1013.19 1013.13 1013.06 1013.25 1013.20 1012.77 1012.46 1011.91 1011.52 1011.27 1011.00 1010.59 1010.08 1009.93 1010.01 1009.87 1010.11 1010.39 1010.73 1011.01 1011.61 1012.08 1012.73 1013.54 1014.44
1020.03 1020.43 1020.52 1020.79 1020.84 1020.82 1020.61 1020.21 1020.14 1020.08 1019.65 1019.47 1019.14 1018.59 1018.20 1016.40 1013.14 1012.70 1012.96 1012.88 1013.07 1013.03 1012.90 1013.13 1013.15 1012.71 1012.53 1012.10 1011.84 1011.71 1011.33 1010.85 1010.35 1010.17 1010.17 1010.29 1010.16 1010.42 1010.61 1011.31 1012.11 1012.59 1013.51 1014.19 1014.70
1019.84 1020.28 1020.34 1021.04 1020.77 1020.91 1020.53 1020.23 1020.12 1019.88 1019.53 1019.48 1019.47 1018.85 1018.26 1014.88 1013.10 1013.26 1013.10 1012.79 1012.81 1012.70 1012.81 1012.92 1013.04 1012.80 1012.71 1012.32 1011.95 1011.52 1011.76 1011.04 1010.12 1010.06 1010.05 1010.09 1010.55 1010.45 1010.36 1011.39 1012.37 1013.17 1013.88 1014.42 1014.96
1020.35 1020.19 1020.25 1020.80 1020.71 1020.78 1020.30 1020.04 1020.08 1019.78 1019.32 1019.27 1019.38 1019.14 1016.78 1013.56 1013.11 1013.08 1012.56 1012.35 1012.43 1012.33 1012.60 1012.73 1012.82 1012.88 1012.95 1012.59 1012.26 1012.10 1012.13 1012.02 1010.28 1010.00 1009.63 1010.02 1010.24 1009.82 1010.11 1011.17 1012.54 1013.19 1013.97 1014.65 1015.22
1020.15 1020.52 1020.05 1020.39 1020.43 1020.25 1020.11 1019.53 1019.35 1019.11 1019.11 1019.16 1019.05 1018.99 1015.77 1013.32 1013.01 1012.01 1012.10 1012.26 1012.32 1012.32 1012.36 1012.63 1012.96 1013.37 1013.21 1013.35 1013.38 1012.98 1012.81 1012.35 1011.24 1010.14 1009.79 1009.92 1009.91 1009.53 1009.56 1010.65 1012.10 1013.04 1013.88 1014.74 1015.50
1019.69 1020.29 1019.72 1020.42 1020.17 1019.90 1019.72 1018.84 1018.32 1018.72 1018.53 1018.77 1018.64 1018.40 1015.16 1013.03 1012.06 1011.88 1011.63 1011.87 1012.17 1012.40 1012.72 1013.34 1013.58 1013.93 1013.98 1013.84 1013.48 1013.15 1012.89 1012.22 1011.71 1010.45 1010.07 1010.27 1009.83 1009.74 1010.01 1010.51 1011.74 1012.95 1014.14 1015.12 1015.81
1019.63 1020.43 1020.00 1020.44 1020.00 1019.67 1019.47 1018.78 1018.50 1018.84 1018.52 1017.30 1016.65 1015.34 1013.87 1012.60 1011.85 1011.86 1011.79 1011.79 1012.19 1012.64 1013.30 1013.84 1014.51 1013.51 1013.10 1012.96 1012.52 1012.33 1012.55 1012.33 1011.54 1010.89 1010.49 1010.49 1010.38 1009.99 1010.33 1011.03 1012.01 1013.21 1014.35 1015.18 1016.08
1020.15 1019.96 1020.09 1020.16 1019.66 1019.84 1019.85 1019.13 1018.43 1018.61 1017.36 1016.09 1015.51 1014.97 1013.64 1013.12 1013.03 1011.99 1011.91 1012.31 1012.36 1012.78 1013.47 1014.19 1013.97 1012.37 1012.67 1012.39 1012.43 1012.30 1012.13 1011.94 1011.46 1010.92 1010.92 1010.72 1010.78 1010.40 1010.24 1010.86 1011.26 1012.73 1014.26 1015.13 1016.01
1020.01 1020.14 1020.17 1020.06 1019.64 1019.82 1019.35 1018.63 1017.78 1017.77 1017.39 1014.87 1013.57 1012.74 1012.06 1012.42 1011.91 1011.79 1012.09 1012.09 1012.30 1012.95 1013.23 1013.53 1012.89 1012.04 1012.25 1012.02 1011.83 1011.61 1011.61 1011.57 1011.54 1011.40 1011.19 1011.07 1010.40 1010.60 1010.36 1010.33 1010.54 1011.58 1012.51 1014.14 1014.97
1020.00 1020.18 1019.88 1019.91 1019.97 1019.49 1019.06 1018.25 1017.90 1017.77 1017.47 1013.78 1012.06 1010.80 1010.45 1010.81 1010.62 1010.45 1010.90 1011.87 1012.45 1012.31 1013.04 1012.96 1012.43 1012.13 1011.80 1011.52 1011.13 1010.81 1010.80 1011.06 1011.67 1012.12 1012.55 1012.11 1010.76 1010.56 1010.37 1010.43 1010.79 1011.69 1012.89 1013.85 1014.97
1019.56 1019.79 1019.96 1019.88 1020.04 1019.39 1018.94 1018.27 1017.95 1018.07 1016.91 1011.69 1010.37 1010.08 1009.78 1010.44 1009.98 1009.86 1010.25 1011.28 1011.63 1011.82 1012.46 1011.74 1011.48 1011.46 1011.22 1010.74 1010.60 1010.41 1010.44 1011.04 1011.80 1012.53 1013.12 1012.92 1013.05 1010.15 1010.40 1010.70 1010.95 1011.80 1012.85 1013.77 1014.68
1018.94 1019.58 1019.32 1020.08 1019.86 1019.14 1018.80 1018.49 1018.34 1018.46 1015.38 1011.46 1010.04 1010.03 1010.52 1010.39 1010.19 1010.12 1010.53 1011.13 1011.59 1011.71 1011.90 1011.64 1011.24 1011.23 1010.76 1010.40 1010.40 1010.43 1011.10 1011.90 1012.67 1013.38 1013.58 1013.26 1013.18 1010.17 1010.89 1010.68 1010.79 1011.55 1012.61 1013.45 1014.33
1018.62 1019.35 1019.70 1019.31 1019.58 1018.76 1018.40 1018.94 1019.16 1017.31 1013.42 1011.91 1010.68 1010.53 1010.41 1010.26 1010.35 1010.56 1011.25 1011.53 1011.60 1012.12 1011.90 1011.76 1011.05 1010.57 1010.44 1010.49 1010.50 1010.88 1011.80 1013.33 1014.07 1014.54 1013.58 1012.91 1013.08 1011.33 1010.54 1010.38 1010.30 1011.04 1011.86 1012.59 1014.10
1018.57 1019.10 1019.26 1019.50 1019.23 1019.00 1018.71 1019.29 1018.58 1015.06 1013.68 1012.39 1011.11 1010.88 1010.72 1010.36 1010.64 1010.98 1011.27 1011.43 1011.74 1012.15 1012.29 1011.71 1010.44 1009.54 1009.24 1009.32 1009.94 1010.80 1011.43 1012.95 1014.01 1014.65 1013.86 1013.13 1012.40 1011.89 1011.66 1010.89 1010.05 1011.09 1012.70 1014.38 1015.47
1018.74 1019.15 1019.32 1019.38 1019.32 1019.18 1019.72 1019.16 1015.91 1014.59 1013.45 1013.26 1011.73 1011.37 1011.02 1010.41 1010.50 1010.88 1010.96 1010.89 1010.96 1011.64 1012.17 1011.38 1010.04 1008.69 1008.30 1008.44 1009.28 1010.34 1011.06 1011.69 1013.34 1014.63 1014.63 1013.46 1012.52 1012.16 1011.54 1011.76 1012.12 1012.84 1014.03 1015.49 1016.65
1018.47 1018.76 1018.78 1018.78 1018.92 1019.34 1019.75 1017.44 1016.02 1014.51 1013.69 1013.58 1012.96 1011.89 1011.52 1011.08 1010.71 1010.68 1010.89 1010.75 1010.60 1010.72 1010.93 1010.67 1010.01 1009.30 1008.50 1008.19 1008.89 1009.61 1010.63 1011.98 1013.12 1014.54 1014.83 1013.66 1012.79 1012.15 1012.36 1012.43 1012.58 1013.29 1014.26 1015.81 1016.71
1017.86 1018.04 1017.63 1018.42 1019.01 1019.48 1018.74 1017.08 1015.82 1014.98 1014.76 1014.14 1013.56 1013.17 1012.71 1012.15 1011.67 1011.20 1011.09 1011.09 1011.30 1010.90 1010.73 1011.07 1010.91 1010.18 1009.27 1009.57 1009.92 1010.54 1011.40 1012.18 1012.74 1013.35 1014.20 1014.09 1012.80 1012.08 1012.29 1012.40 1012.28 1012.75 1013.55 1014.59 1015.46
1017.04 1017.83 1017.46 1017.81 1018.90 1018.75 1017.32 1016.59 1015.76 1014.91 1014.73 1014.61 1013.78 1013.50 1013.38 1013.07 1012.52 1011.98 1011.82 1012.04 1011.81 1011.66 1011.57 1011.80 1011.76 1011.50 1010.77 1010.54 1010.51 1011.08 1012.57 1013.62 1014.10 1014.40 1013.96 1014.04 1013.30 1012.02 1011.85 1012.14 1012.44 1012.50 1012.82 1013.26 1014.02
1016.47 1017.14 1017.18 1017.28 1017.46 1017.67 1016.93 1016.62 1015.89 1015.21 1014.73 1014.47 1013.78 1013.47 1013.50 1013.69 1013.60 1012.57 1012.39 1012.15 1011.80 1011.77 1012.40 1012.51 1013.19 1012.58 1011.90 1011.34 1011.33 1012.72 1013.58 1014.63 1014.58 1014.58 1014.19 1013.96 1012.88 1011.56 1011.30 1011.77 1011.68 1012.14 1012.78 1013.21 1013.52
1016.46 1016.56 1016.77 1016.65 1016.32 1015.97 1016.07 1016.25 1015.41 1014.88 1015.00 1014.56 1014.26 1013.95 1013.66 1013.52 1013.52 1013.42 1013.13 1012.80 1012.25 1012.40 1012.71 1012.59 1013.10 1013.39 1013.36 1013.15 1013.45 1013.87 1014.30 1014.15 1014.27 1014.50 1014.15 1013.43 1013.02 1011.75 1011.55 1011.69 1011.39 1011.38 1011.32 1012.32 1013.62
1015.96 1015.23 1014.63 1015.54 1015.39 1014.80 1015.17 1015.07 1014.84 1014.62 1014.59 1014.34 1014.00 1013.89 1013.73 1013.38 1013.29 1013.19 1013.20 1013.36 1012.89 1012.89 1013.41 1013.35 1013.75 1014.15 1013.90 1013.75 1013.58 1013.74 1013.91 1013.61 1013.75 1013.76 1013.61 1013.09 1012.61 1011.85 1011.46 1011.39 1011.02 1011.13 1011.71 1012.69 1013.95
1015.06 1015.51 1014.84 1014.42 1014.18 1014.77 1014.83 1014.19 1013.74 1014.01 1013.95 1013.69 1013.83 1013.32 1013.25 1013.27 1013.20 1013.19 1013.00 1012.99 1012.75 1013.06 1013.50 1014.09 1014.48 1014.79 1014.65 1014.35 1014.16 1013.73 1013.05 1012.83 1012.68 1012.54 1012.52 1012.46 1011.79 1011.44 1011.23 1011.66 1012.01 1012.07 1012.44 1012.85 1013.80
1015.10 1015.19 1014.92 1013.71 1013.68 1013.49 1013.32 1012.33 1012.51 1013.62 1013.10 1012.78 1012.78 1013.04 1012.93 1012.80 1012.93 1013.04 1012.95 1012.95 1013.02 1013.41 1014.01 1014.75 1015.22 1015.68 1015.39 1015.07 1014.70 1013.99 1012.22 1012.19 1012.02 1012.04 1011.81 1011.72 1011.52 1011.66 1012.21 1012.40 1012.99 1013.44 1013.36 1013.15 1013.78
Thickness
5661 5663 5664 5666 5669 5671 5673 5676 5681 5684 5687 5692 5696 5700 5704 5709 5718 5729 5728 5736 5739 5741 5742 5744 5748 5749 5748 5738 5744 5745 5707 5692 5709 5721 5728 5740 5742 5750 5760 5747 5740 5740 5735 5733 5730
5654 5655 5656 5658 5658 5662 5665 5668 5669 5673 5678 5683 5688 5692 5697 5700 5705 5715 5733 5731 5732 5734 5734 5728 5727 5732 5727 5731 5734 5720 5698 5703 5718 5730 5726 5732 5734 5740 5737 5730 5724 5727 5729 5728 5724
5645 5646 5647 5650 5651 5651 5655 5658 5660 5661 5669 5674 5679 5684 5690 5693 5698 5715 5726 5724 5727 5726 5726 5723 5724 5719 5720 5725 5725 5719 5705 5713 5727 5729 5730 5723 5724 5730 5723 5711 5721 5720 5722 5723 5719
5636 5637 5638 5639 5642 5642 5645 5650 5650 5654 5659 5663 5669 5676 5683 5686 5679 5712 5720 5718 5719 5720 5718 5716 5712 5707 5708 5707 5717 5709 5720 5722 5724 5729 5726 5719 5725 5717 5724 5721 5720 5719 5721 5716 5709
5625 5627 5627 5628 5631 5632 5635 5640 5642 5647 5651 5654 5658 5666 5674 5676 5686 5712 5712 5713 5711 5711 5708 5703 5698 5701 5695 5702 5707 5709 5712 5717 5719 5723 5721 5723 5713 5712 5714 5713 5713 5712 5707 5702 5700
5614 5614 5616 5616 5618 5621 5625 5630 5633 5636 5642 5643 5647 5654 5658 5661 5702 5704 5705 5707 5704 5703 5701 5700 5694 5700 5696 5697 5697 5702 5705 5706 5711 5713 5713 5709 5709 5711 5714 5705 5703 5704 5697 5693 5689
5605 5604 5608 5603 5609 5609 5615 5620 5622 5626 5631 5632 5633 5641 5645 5666 5692 5693 5695 5699 5699 5699 5693 5696 5693 5691 5692 5688 5701 5702 5689 5697 5707 5704 5705 5705 5695 5698 5710 5701 5693 5692 5689 5686 5682
5591 5595 5598 5595 5599 5600 5608 5612 5613 5617 5622 5623 5624 5629 5646 5677 5682 5685 5693 5691 5693 5695 5691 5692 5691 5686 5685 5691 5689 5688 5685 5668 5698 5702 5704 5699 5679 5701 5707 5699 5684 5683 5681 5678 5675
5581 5580 5588 5587 5590 5594 5598 5606 5609 5613 5614 5616 5618 5620 5644 5671 5670 5685 5686 5680 5683 5686 5688 5686 5681 5669 5677 5666 5658 5667 5652 5657 5674 5696 5697 5689 5679 5699 5704 5698 5682 5681 5676 5669 5665
5572 5569 5579 5575 5580 5586 5591 5601 5607 5608 5609 5611 5612 5614 5640 5659 5672 5677 5681 5680 5675 5675 5671 5665 5655 5648 5651 5648 5642 5648 5651 5659 5661 5686 5686 5679 5680 5690 5693 5691 5681 5676 5666 5660 5655
5562 5560 5566 5565 5571 5576 5583 5590 5599 5597 5600 5616 5619 5631 5645 5658 5668 5667 5669 5669 5668 5663 5646 5646 5632 5640 5652 5654 5662 5664 5656 5650 5663 5676 5677 5666 5665 5673 5673 5670 5659 5658 5654 5650 5645
5548 5552 5554 5555 5563 5565 5567 5577 5586 5587 5595 5615 5619 5623 5639 5640 5633 5652 5661 5648 5648 5641 5642 5634 5627 5657 5654 5657 5654 5651 5646 5646 5657 5669 5664 5657 5653 5662 5668 5659 5659 5649 5641 5638 5632
5535 5537 5541 5545 5551 5555 5561 5570 5579 5579 5579 5611 5624 5629 5640 5633 5634 5640 5644 5643 5640 5632 5634 5624 5638 5655 5649 5648 5646 5648 5641 5643 5644 5653 5652 5649 5652 5652 5660 5661 5661 5648 5645 5636 5630
5521 5522 5529 5533 5537 5545 5550 5560 5564 5568 5550 5602 5617 5628 5637 5637 5631 5650 5645 5635 5626 5628 5628 5624 5641 5640 5640 5638 5644 5635 5649 5647 5640 5628 5612 5636 5623 5646 5652 5649 5651 5636 5629 5627 5623
5506 5509 5511 5515 5521 5532 5538 5546 5550 5550 5545 5611 5615 5627 5631 5623 5631 5634 5639 5623 5619 5626 5623 5626 5635 5629 5626 5633 5640 5636 5647 5637 5630 5613 5613 5610 5592 5641 5643 5634 5634 5623 5621 5618 5613
5497 5496 5502 5500 5508 5518 5522 5528 5537 5526 5526 5591 5604 5602 5601 5608 5614 5621 5616 5619 5619 5611 5615 5617 5631 5622 5627 5634 5631 5634 5621 5613 5607 5597 5583 5599 5589 5628 5618 5622 5624 5616 5613 5610 5605
5483 5481 5484 5492 5495 5503 5511 5509 5499 5512 5575 5577 5585 5590 5592 5594 5598 5602 5595 5590 5591 5584 5588 5604 5610 5620 5621 5613 5619 5613 5597 5571 5565 5559 5579 5606 5582 5602 5618 5619 5618 5612 5607 5605 5594
5465 5465 5469 5471 5482 5485 5494 5489 5488 5546 5547 5563 5577 5581 5579 5587 5586 5583 5583 5578 5583 5582 5578 5574 5587 5610 5621 5614 5604 5596 5593 5561 5556 5554 5573 5593 5576 5584 5596 5603 5611 5600 5588 5576 5566
5449 5452 5456 5456 5460 5465 5463 5473 5517 5536 5538 5535 5556 5559 5568 5580 5580 5575 5576 5576 5579 5575 5567 5572 5585 5616 5618 5622 5612 5593 5579 5589 5564 5557 5553 5568 5580 5582 5584 5581 5579 5571 5564 5553 5543
5436 5437 5445 5443 5447 5446 5445 5484 5508 5524 5518 5521 5529 5544 5545 5554 5559 5562 5560 5574 5575 5578 5580 5578 5576 5594 5604 5608 5603 5589 5589 5557 5539 5540 5534 5552 5565 5558 5562 5558 5565 5559 5550 5540 5534
5423 5425 5443 5431 5429 5424 5438 5470 5494 5501 5491 5503 5512 5517 5527 5529 5535 5542 5539 5551 5552 5559 5565 5563 5561 5570 5586 5573 5572 5570 5560 5557 5550 5539 5529 5533 5542 5560 5556 5550 5554 5554 5545 5540 5533
5416 5410 5425 5421 5411 5413 5441 5466 5484 5489 5480 5490 5502 5507 5511 5515 5519 5525 5528 5530 5538 5540 5538 5541 5543 5540 5556 5563 5567 5557 5541 5535 5518 5522 5522 5514 5523 5557 5553 5546 5540 5541 5543 5542 5536
5405 5407 5411 5414 5411 5409 5433 5450 5460 5472 5469 5482 5491 5500 5504 5499 5499 5512 5517 5523 5532 5528 5523 5527 5505 5518 5535 5550 5546 5522 5517 5516 5521 5512 5514 5504 5517 5553 5554 5540 5536 5530 5533 5533 5526
5388 5397 5393 5403 5413 5424 5426 5432 5446 5459 5459 5466 5475 5480 5488 5491 5493 5493 5499 5503 5515 5516 5516 5520 5513 5513 5514 5519 5516 5507 5506 5515 5513 5496 5508 5506 5517 5536 5538 5529 5531 5532 5539 5527 5516
5372 5390 5406 5396 5410 5423 5426 5434 5438 5446 5455 5458 5461 5466 5472 5479 5485 5485 5491 5489 5502 5505 5502 5500 5494 5498 5509 5514 5512 5500 5502 5511 5509 5504 5491 5504 5505 5519 5525 5519 5526 5527 5520 5514 5502
5368 5375 5388 5400 5415 5412 5413 5427 5441 5445 5446 5450 5443 5461 5463 5467 5474 5477 5485 5484 5491 5492 5490 5484 5473 5481 5487 5498 5497 5494 5508 5509 5510 5509 5499 5498 5501 5519 5515 5515 5512 5512 5506 5502 5499
5353 5362 5376 5400 5400 5406 5414 5440 5444 5435 5441 5449 5446 5448 5450 5464 5465 5471 5473 5474 5479 5481 5468 5466 5454 5452 5469 5475 5473 5470 5504 5502 5502 5499 5495 5484 5502 5506 5501 5497 5488 5485 5493 5494 5488